| Date | Time | Temp. (oF) | Dew Point (oF) | Rel. Hum. (%) | Press. (in.) | Wind Dir. | Wind Speed (mph) | Hourly Rainfall (in.) |
|
|---|---|---|---|---|---|---|---|---|---|
| 1 | 11/27 | 00:00 | 44 | 43 | 98 | 29.68 | N | 7 | 0.00 |
| 2 | 11/26 | 23:00 | 48 | 48 | 100 | 29.69 | WSW | 4 | 0.00 |
| 3 | 11/26 | 22:00 | 48 | 48 | 100 | 29.70 | NNW | 1 | 0.00 |
| 4 | 11/26 | 21:00 | 48 | 48 | 100 | 29.72 | NNW | 4 | 0.00 |
| 5 | 11/26 | 20:00 | 47 | 46 | 100 | 29.73 | NNW | 3 | 0.00 |
| 6 | 11/26 | 19:00 | 49 | 48 | 98 | 29.74 | E | 0 | 0.00 |
| 7 | 11/26 | 18:00 | 49 | 48 | 97 | 29.76 | NNE | 0 | 0.00 |
| 8 | 11/26 | 17:00 | 50 | 48 | 95 | 29.77 | NW | 0 | 0.00 |
| 9 | 11/26 | 16:00 | 51 | 48 | 92 | 29.78 | SSW | 0 | 0.00 |
| 10 | 11/26 | 15:00 | 50 | 48 | 95 | 29.80 | SSE | 0 | 0.00 |
| 11 | 11/26 | 14:00 | 50 | 49 | 98 | 29.82 | E | 3 | 0.00 |
| 12 | 11/26 | 13:00 | 50 | 49 | 99 | 29.84 | SE | 4 | 0.00 |
| 13 | 11/26 | 12:00 | 50 | 49 | 99 | 29.87 | ESE | 7 | 0.00 |
| 14 | 11/26 | 11:00 | 51 | 50 | 100 | 29.89 | S | 4 | 0.00 |
| 15 | 11/26 | 10:00 | 50 | 50 | 100 | 29.91 | SE | 2 | 0.00 |
| 16 | 11/26 | 09:00 | 49 | 49 | 100 | 29.92 | SE | 3 | 0.00 |
| 17 | 11/26 | 08:00 | 48 | 48 | 100 | 29.93 | SE | 0 | 0.00 |
| 18 | 11/26 | 07:00 | 48 | 48 | 100 | 29.93 | S | 1 | 0.00 |
| 19 | 11/26 | 06:00 | 48 | 48 | 100 | 29.93 | ENE | 3 | 0.00 |
| 20 | 11/26 | 05:00 | 48 | 48 | 100 | 29.92 | ENE | 3 | 0.00 |
| 21 | 11/26 | 04:00 | 48 | 48 | 100 | 29.92 | ESE | 0 | 0.00 |
| 22 | 11/26 | 03:00 | 48 | 48 | 100 | 29.93 | SSW | 4 | 0.00 |
| 23 | 11/26 | 02:00 | 48 | 48 | 100 | 29.93 | SSW | 3 | 0.00 |
| 24 | 11/26 | 01:00 | 48 | 48 | 100 | 29.92 | W | 1 | 0.00 |